This is the latest recevied weather packets stored in our database for station/object N5GMJ. If no packets are shown the sender has not sent any weather packets the latest 10 day(s).
| Time | Temp. | Humidity | Pressure | Rain* | Wind** | Luminosity | Snow |
|---|---|---|---|---|---|---|---|
| 1777692248 | 13.33° C | 90% | 1020.5 hPa | 0 mm | - | - | - |
| 1777691945 | 13.33° C | 88% | 1020.4 hPa | 0 mm | - | - | - |
| 1777691643 | 13.33° C | 90% | 1020.3 hPa | 0 mm | - | - | - |
| 1777691341 | 13.33° C | 91% | 1020.2 hPa | 0 mm | - | - | - |
| 1777691039 | 13.89° C | 90% | 1020.3 hPa | 0 mm | - | - | - |
| 1777690736 | 13.89° C | 87% | 1020.2 hPa | 0 mm | - | - | - |
| 1777690433 | 13.89° C | 86% | 1020.1 hPa | 0 mm | - | - | - |
| 1777690131 | 14.44° C | 85% | 1020.2 hPa | 0 mm | - | - | - |
| 1777689829 | 14.44° C | 84% | 1020 hPa | 0 mm | - | - | - |
| 1777689527 | 14.44° C | 83% | 1020.1 hPa | 0 mm | - | - | - |
| 1777689224 | 15° C | 81% | 1019.9 hPa | 0 mm | - | - | - |
| 1777688922 | 15.56° C | 80% | 1019.6 hPa | 0 mm | - | - | - |
| 1777688618 | 15.56° C | 80% | 1019.7 hPa | 0 mm | - | - | - |
| 1777688315 | 15.56° C | 79% | 1019.9 hPa | 0 mm | - | - | - |
| 1777688012 | 15° C | 80% | 1019.6 hPa | 0 mm | - | - | - |
| 1777687709 | 14.44° C | 85% | 1019.4 hPa | 0 mm | - | - | - |
| 1777687407 | 14.44° C | 84% | 1019.4 hPa | 0 mm | - | - | - |
| 1777687104 | 15° C | 85% | 1019.4 hPa | 0 mm | - | - | - |
| 1777686801 | 15° C | 85% | 1019.2 hPa | 0 mm | - | - | - |
| 1777686498 | 15° C | 82% | 1019.2 hPa | 0 mm | - | - | - |
| 1777686195 | 15.56° C | 80% | 1019 hPa | 0 mm | - | - | - |
| 1777685891 | 15.56° C | 79% | 1019 hPa | 0 mm | - | - | - |
| 1777685587 | 15.56° C | 79% | 1018.9 hPa | 0 mm | - | - | - |
| 1777685283 | 15.56° C | 78% | 1018.9 hPa | 0 mm | - | - | - |
| 1777684981 | 15.56° C | 79% | 1018.9 hPa | 0 mm | - | - | - |
* Rain latest hour (hover to see other rain measurements)
** Current wind speed in m/s (hover to see current wind gust speed)